DELTA 1 DEB

Satellite information

Favourite Embed

Satellite Type and Status

DEBRISIN ORBIT

Key statistics

Satellite DELTA 1 DEB at a glance.

Uptime

18990

Days in orbit

Revolutions

≈ 12.0

Per day

Orbit

SSO

Sun Synchronous Orbit

Inclination

101.9

Latest

Satellite identification and parameters

Extended collection of information and parameters for DELTA 1 DEB.

Object identification

Identified? True

Debris? True

Object name: DELTA 1 DEB

International designator: 1973-086CR

Object number (NORAD): 7127

Object ID (CCSDS): 7127

Country: UNITED STATES OF AMERICA (US)

Current information (Y/N): Y

RCS size: SMALL

Orbital parameters

Period: 119.929 minutes

Inclination: 101.8875 deg

SMA: 8055.826 km

Apoapsis: 1891.69 km

Periapsis: 1463.692 km

RAAN: 338.1302 deg

Eccentricy: 0.02656453

Argument of periapsis: 342.2149 deg

Mean anomaly: 83.1483 deg

Mean motion: 12.0070863 rev/day

Mean motion (dot): 0.00000342 rev/day2

B* drag term: 0.0042263704 1/REarth

Two-line elements (TLE)

Creation date: Nov. 1, 2025, 7:40 p.m.

Reference frame: TEME

Reference center: EARTH

Epoch: Nov. 1, 2025, 12:22 a.m. UTC

TLE line 0: 0 DELTA 1 DEB

TLE line 1: 1 07127U 73086CR 25305.01582576 .00000342 00000-0 42264-2 0 9999

TLE line 2: 2 07127 101.8875 338.1302 0265645 342.2149 83.1483 12.00708630277732

Live tracking on map

Real-time ground track for satellite DELTA 1 DEB.

In-orbit conjunctions

A list of the most updated potential collisions computed for object DELTA 1 DEB.

Target Orbit TCA Probability of collision Miss distance Type
COSMOS 1927 LEO 2025-05-21 20:02:15 0.001054372 274.0 (m) PAYLOAD
SL-8 DEB LEO 2024-09-20 16:53:42 0.000128383 232.0 (m) DEBRIS

Associated space launch

Meteorological satellite using radiometric imaging

DELTA 1 DEB was lifted into orbit during the mission ‘Delta 0300 | NOAA 3’, on board a Delta 0300 space rocket.

The launch took place on Nov. 6, 1973, 5:02 p.m. from Space Launch Complex 2W.

For more information about the launch, click the button.

Launch to space Delta 0300 | NOAA 3
Delta 0300 | NOAA 3

Agency: N/A

Status: Launch Successful

Launch date: Nov. 6, 1973, 5:02 p.m. UTC

Rocket: Delta 0300

Launch pad: Space Launch Complex 2W

Location: Vandenberg SFB, CA, USA

...

Latest news about this satellite

There are no fresh news available about this satellite. Check back as we update our databases every day.


Newsletter sign-up

Weekly statistics, charts and insights to help you stay on top of the space industry.